Погода во Фрязино

Россия / Московская область     55°57′28″N   38°03′08″E
темп.,
°C
ветер,
м/с
пор.,
м/с
влажн.,
%
обл.,
%
осадки,
мм/ч
давл.,
гПа
погр.,
м
6 марта, сб
сб600:00−11зсз22890 0.0 101421
03:00−11зсз23910 0.0 101624
06:00−12сз24960 0.0 101577
09:00−9зсз259210 0.0 1016221
12:00−5зсз357690 0.1 1016917
15:00−5зсз457495 0.5 1015963
18:00−8з238694 0.4 101445
21:00−11зюз239064 0.4 101364
7 марта, вс
вс700:00−11ююз389216 0.0 1011151
03:00−9ююз5128854 0.0 1007501
06:00−7ююз61394100 0.5 1002837
09:00−5юз71393100 2.1 9971008
12:00−3юз81492100 1.8 9921171
15:00−1з81394100 4.1 9901121
18:00−6зсз61466100 0.8 992978
21:00−8з5128361 0.8 995460
8 марта, пн
пн800:00−9зюз499218 0.0 995243
03:00−11з129644 0.0 99421
06:00−13сз379484 0.1 994130
09:00−10зсз5128770 0.1 997682
12:00−7сз61085100 0.3 10001110
15:00−7ссз6981100 0.4 10031061
18:00−9ссз41088100 0.1 1006659
21:00−12сз3109368 0.1 1009347
9 марта, вт
вт900:00−15ссз379639 0.0 1011157
03:00−17сз359851 0.1 1013134
06:00−19ссз379846 0.0 1015173
09:00−17ссз369243 0.0 1016297
12:00−14ссз468489 0.0 1018560
15:00−13ссз467988 0.0 1018755
18:00−16ссз259099 0.0 1019137
21:00−20с239660 0.0 102281
10 марта, ср
ср1000:00−23ссз23950 0.0 102335
03:00−24ссз22960 0.0 102421
06:00−25ссз22960 0.0 102523
09:00−22ссв24900 0.0 1026226
12:00−16св23710 0.0 1026555
15:00−14ссв23640 0.0 1026846
18:00−17с22850 0.0 102720
21:00−21ссв129110 0.0 102820